Regional Weather Roundup
Issued by NWS

Home | Current Version | Previous Version | Text Only | Print | Product List | Glossary Off
Versions: 1 2 3 4 5 6 7 8 9 10 11 12 13 14 15 16 17 18 19 20 21 22 23 24 25 26 27 28 29 30 31 32 33 34 35 36 37 38 39 40 41 42 43 44 45 46 47 48 49 50

544
ASUS44 KLIX 230405
RWRLA
LOUISIANA WEATHER ROUNDUP
NATIONAL WEATHER SERVICE NEW ORLEANS LA
1100 PM CDT MON SEP 22 2014

NOTE: "FAIR" INDICATES FEW OR NO CLOUDS BELOW 12,000 FEET WITH NO
      SIGNIFICANT WEATHER AND/OR OBSTRUCTIONS TO VISIBILITY.
      SKY/WX - SKY CONDITION AND SIGNIFICANT WEATHER.
      TMP - AIR TEMPERATURE.    DP   - DEWPOINT TEMPERATURE.
      RH  - RELATIVE HUMIDITY.  PRES - PRESSURE.
      HX  - HEAT INDEX.         WCI  - WIND CHILL INDEX.

*  THESE STATIONS ARE NOT NWS OR FAA STATIONS AND ARE NOT UNDER
   NWS QUALITY CONTROL.

LAZ040-048-061>063-065-066-069-230500-
SOUTHEAST LOUISIANA

CITY           SKY/WX    TMP DP  RH WIND       PRES   REMARKS
N.O. AUDUBON     N/A     78  58  50 MISG        N/A
N.O. INTL ARPT CLEAR     79  56  45 NE20G28   30.05R
N.O. LAKEFRONT CLEAR     79  61  53 NE28      30.05R
N.O. DOWNTOWN* FAIR      79  55  44 N8G17     30.05R
SLIDELL        CLEAR     67  57  70 N6        30.06R
BATON ROUGE    CLEAR     67  57  70 VRB3      30.09R
BOOTHVILLE     CLEAR     83  66  56 NE13G22   30.02S
BELLE CHASSE   PTCLDY    75  56  51 NE9       30.04R
BOGALUSA*        N/A     63  57  80 N3        30.10R
GALLIANO*      NOT AVBL
NEW ROADS*     FAIR      67  57  72 N8        30.09R
GONZALES*      FAIR      70  60  70 N5        30.06S
HAMMOND*       CLEAR     66  57  72 N3        30.09S
HOUMA*         CLEAR     71  52  50 N5        30.04S
PORT FOURCHON* CLEAR     81  66  61 N15       30.06R

$$

LAZ041-044-053-054-230500-
SOUTHWEST LOUISIANA

CITY           SKY/WX    TMP DP  RH WIND       PRES   REMARKS
LAKE CHARLES   NOT AVBL
LAFAYETTE      CLEAR     69  57  65 NE7       30.08R
PATTERSON      CLEAR     72  63  73 NE8       30.08
SALT POINT       N/A     76  65  68 VRB3      30.05R
NEW IBERIA     CLEAR     73  59  61 NE9       30.07S
CHENAULT AIRPK CLEAR     70  59  69 NE7       30.08S

$$

LAZ027-028-230500-
CENTRAL LOUISIANA

CITY           SKY/WX    TMP DP  RH WIND       PRES   REMARKS
FORT POLK      NOT AVBL
ALEXANDRIA INT CLEAR     67  54  63 N5        30.10R
ALEXANDRIA     CLEAR     68  55  63 NE5       30.11R

$$

LAZ001-002-230500-
NORTHWEST LOUISIANA

CITY           SKY/WX    TMP DP  RH WIND       PRES   REMARKS
SHREVEPORT     CLEAR     69  55  60 N7        30.15R
BARKSDALE AFB  CLEAR     65  55  69 N2        30.16R
DTN SHREVEPORT CLEAR     67  56  67 N3        30.16R

$$

LAZ014-016-230500-
NORTHEAST LOUISIANA

CITY           SKY/WX    TMP DP  RH WIND       PRES   REMARKS
MONROE         CLEAR     68  52  56 NE9       30.15R
TALLULAH       CLEAR     67  55  65 NE9       30.14R

$$




USA.gov is the U.S. government's official web portal to all federal, state and local government web resources and services.